Location: Ciborowice
(50.1879°N, 20.3658°E)
Time: 12:28:23
(UTC+00:00)

Daily predictions for brighter satellites

Satellite Brightness Start Highest point End
(mag) Time Altitude Azimuth Time Altitude Azimuth Time Altitude Azimuth
Cosmos 2034 Rocket 4.5 15:06:55 10° NNW 15:13:07 69° W 15:19:12 10° S
Cosmos 1606 Rocket 3.6 15:10:44 10° S 15:15:09 66° E 15:19:33 10° NNE
SMAP 3.5 15:11:39 10° SE 15:15:58 39° ENE 15:20:19 10° N
Cosmos 1726 Rocket 3.8 15:13:01 10° S 15:17:20 53° E 15:21:40 10° NNE
USA 306 1.6 15:17:31 10° WNW 15:19:45 45° NNE 15:21:51 10° E
ATLAS 5 CENTAUR R/B 4.3 15:15:36 10° WNW 15:20:13 32° WSW 15:25:42 10° S
Cosmos 1500 3.8 15:20:53 10° N 15:24:04 30° ENE 15:27:13 10° SE
Tsikada Rocket 4.0 15:17:58 10° S 15:24:13 85° E 15:30:26 10° N
Cosmos 1825 Rocket 3.7 15:20:29 10° NNW 15:24:49 77° W 15:29:07 10° S
Cosmos 2263 Rocket 3.2 15:20:45 10° SSE 15:25:22 28° ESE 15:30:01 10° NE
Cosmos 1437 Rocket 2.7 15:23:45 10° N 15:27:23 52° ENE 15:31:02 10° SSE
Cosmos 2227 Rocket 2.2 15:21:54 10° SSW 15:27:33 76° ESE 15:33:13 10° NNE
CZ-2D R/B 3.1 15:24:08 10° SSE 15:27:48 77° ENE 15:31:29 10° N
Cosmos 1869 4.0 15:24:12 10° SSW 15:27:54 52° WNW 15:31:36 10° N
SL-8 R/B 3.9 15:23:40 10° W 15:28:25 73° S 15:33:12 10° E
SJ-11-01 4.2 15:24:18 10° SSE 15:28:57 85° ENE 15:33:38 10° NNW
Cosmos 2298 Rocket 4.2 15:24:27 10° SSW 15:29:47 83° WNW 15:35:09 10° NNE
H-2A R/B 4.3 15:28:59 10° SSW 15:33:18 27° W 15:37:34 10° NW
Cosmos 2151 3.0 15:29:24 10° N 15:33:37 57° ENE 15:37:49 10° SSE
Cosmos 2228 4.5 15:30:14 10° SW 15:34:18 38° WNW 15:38:22 10° N
CORIOLIS 4.2 15:31:02 10° SSE 15:36:16 61° ENE 15:41:35 10° N
Cosmos 1238 Rocket 2.8 15:33:26 10° SSW 15:37:14 70° W 15:40:32 10° N
ATLAS 2AS CENTAUR R/B 3.6 15:30:59 10° NW 15:37:15 32° NNE 15:42:50 12° ENE
CZ-2C R/B 2.5 15:34:57 10° SSE 15:38:29 80° ENE 15:42:06 10° NNW
SL-16 R/B 4.0 15:34:05 10° N 15:39:39 34° WNW 15:45:11 10° WSW
Cosmos 2251 Rocket 4.4 15:35:07 10° N 15:39:42 28° NE 15:44:16 10° ESE
Helios 1B rocket 2.8 15:38:29 10° S 15:42:23 65° WSW 15:46:20 10° NNW
YAOGAN 1 4.2 15:42:20 13° ENE 15:42:42 13° NE 15:44:43 10° NNE
CZ-4B R/B 3.9 15:39:19 10° SE 15:44:00 39° ENE 15:48:36 10° N
Cosmos 407 Rocket 4.3 15:40:16 10° N 15:44:42 27° NE 15:49:04 10° ESE
CZ-4B R/B 3.6 15:41:26 10° SSE 15:44:57 55° ENE 15:48:30 10° N
Cosmos 1812 4.1 15:44:16 10° SE 15:46:46 18° E 15:47:51 16° ENE
SL-16 R/B 2.5 15:44:21 10° NNW 15:50:03 74° WSW 15:55:41 10° SSE
USA 305 2.7 15:50:38 10° WNW 15:54:25 60° NNE 15:57:19 16° E
Lacrosse 4 Rocket 2.1 15:50:22 10° NNW 15:54:25 35° NE 15:58:22 10° ESE
Meteor 1-31 Rocket 2.5 15:51:16 10° SSE 15:54:57 71° ENE 15:58:40 10° N
Cosmos 2344 4.3 15:55:34 10° S 16:01:53 29° ESE 16:06:06 17° ENE
Cosmos 1943 3.3 15:58:35 10° NNW 16:04:07 53° NE 16:09:37 10° SE
Cosmos 1544 3.5 16:01:11 10° NNW 16:04:24 57° W 16:07:35 10° S
Radarsat Rocket 4.1 15:58:52 10° SE 16:04:26 49° ENE 16:10:16 10° N
Cosmos 1607 4.0 15:58:19 10° SSW 16:04:38 77° SE 16:10:12 14° NE
Cosmos 1269 Rocket 4.4 16:00:38 10° NNW 16:05:54 69° WSW 16:11:09 10° SSE
Cosmos 1076 Rocket 3.7 16:04:56 10° NNW 16:09:19 76° W 16:13:39 10° S
BREEZE-M DEB (TANK) 3.6 16:06:26 10° WSW 16:10:05 88° SSE 16:19:21 18° ENE
Cosmos 1812 Rocket 4.2 16:09:18 10° SSE 16:13:08 32° E 16:15:10 21° NE
SL-08 R/B 4.2 16:15:09 24° ENE 16:16:00 25° E 16:19:49 10° SSE
Cosmos 2297 Rocket 3.5 16:10:58 10° WSW 16:16:07 35° NW 16:21:19 10° NNE
Cosmos 2219 3.3 16:12:07 10° SW 16:17:44 75° WNW 16:23:08 11° NNE
ADEOS 3.9 16:12:55 10° SE 16:17:47 41° ENE 16:22:41 10° N
Cosmos 44 4.0 16:14:17 10° NW 16:19:38 62° SW 16:24:44 10° SSE
USA 234 3.4 16:16:20 20° ENE 16:20:58 62° SE 16:27:26 10° SW
DMSP B5D2-2 4.4 16:16:20 10° N 16:21:31 69° WNW 16:26:41 10° SSW
Cosmos 1602 3.5 16:19:32 10° N 16:23:16 89° E 16:27:00 10° S
Meteor 1-25 Rocket 4.3 16:17:58 10° N 16:23:36 55° ENE 16:29:05 10° SSE
Cosmos 1023 Rocket 4.4 16:18:50 10° NNW 16:24:00 67° ENE 16:29:06 10° SSE
Cosmos 1666 2.9 16:24:33 10° NNW 16:28:03 63° W 16:31:33 10° S
USA 307 2.6 16:25:38 10° WNW 16:29:31 81° SSW 16:31:19 30° ESE
ISS -2.6 16:30:28 10° W 16:33:40 41° SSW 16:35:28 21° SSE
Cosmos 2082 3.7 16:29:26 10° SSW 16:35:04 85° WNW 16:39:27 17° NNE
COSMO-SKYMED 1 2.7 16:34:41 29° NE 16:36:39 51° E 16:40:53 10° S
Cosmos 2026 Rocket 4.3 16:32:21 10° SSE 16:38:11 44° E 16:44:09 10° NNE
Cosmos 2058 Rocket 4.2 16:35:38 10° SSW 16:39:53 43° WNW 16:44:07 10° N
ATLAS CENTAUR R/B 2.8 16:35:47 10° WNW 16:40:01 76° SW 16:48:19 10° SE
Cosmos 1833 Rocket 4.4 16:37:46 10° N 16:40:51 16° NNE 16:40:51 16° NNE
Lacrosse 5 3.5 16:43:09 10° SSE 16:45:42 18° SE 16:45:42 18° SE
Helios 1A 2.9 16:44:13 19° NNE 16:47:13 84° WNW 16:51:22 10° SSW
CBERS 1 LM4 rocket 4.4 16:44:21 10° SSE 16:49:11 78° WSW 16:53:57 10° NNW
Cosmos 1140 Rocket 3.5 16:45:04 10° NNW 16:50:18 81° WSW 16:55:26 10° SSE
Cosmos 1092 Rocket 4.0 16:45:23 10° SSE 16:51:20 55° E 16:57:18 10° NNE
Nadezhda 4 Rocket 4.0 16:48:41 10° SSW 16:54:50 82° W 17:01:00 10° N
USA 306 4.3 16:53:04 10° W 16:54:02 18° WSW 16:54:02 18° WSW
CZ-4B R/B 3.1 16:58:57 56° NE 16:58:57 56° NE 17:02:39 10° N
CZ-4B R/B 4.2 17:00:48 29° NNE 17:00:48 29° NNE 17:04:12 10° N
Meteor 1-20 Rocket 4.4 16:53:54 10° NNW 16:59:26 70° W 17:05:01 10° S
Cosmos-2242 3.3 16:57:51 10° SSW 17:02:11 69° WNW 17:05:03 21° N
Meteor 1-5 Rocket 4.2 16:59:49 10° N 17:05:24 60° ENE 17:11:08 10° SSE
Cosmos 2227 4.1 17:00:50 10° SSW 17:06:33 69° ESE 17:08:10 47° NE
Cosmos 2263 Rocket 2.7 17:03:28 10° SW 17:08:56 57° NW 17:12:13 24° NNE
Cosmos 1844 Rocket 3.5 17:05:16 10° S 17:08:55 33° SE 17:08:55 33° SE
Cosmos 2082 Rocket 4.3 17:09:12 10° N 17:10:23 12° N 17:10:23 12° N
RESURS DK-1 4.3 17:07:56 10° NNW 17:09:16 18° N 17:09:16 18° N
Cosmos 2227 Rocket 4.0 17:07:30 10° W 17:12:12 26° NW 17:16:16 13° N
EO 1 Delta rocket 4.4 17:05:57 10° SSE 17:12:56 77° ENE 17:18:25 10° N
Cosmos 1428 Rocket 4.5 17:11:28 10° S 17:17:48 84° W 17:24:08 10° N
YAOGAN 1 3.2 17:19:24 44° NNW 17:19:24 44° NNW 17:22:24 10° NNW
Cosmos 1603 4.0 17:15:16 10° NNW 17:20:56 67° WSW 17:26:12 12° SSE
Cosmos 1812 3.9 17:18:07 10° SW 17:21:36 39° WNW 17:22:20 35° NW
Cosmos 2251 Rocket 4.1 17:17:05 10° NNW 17:22:19 58° WSW 17:27:34 10° S
SKYMED 2 4.1 17:23:18 37° NNW 17:24:45 56° WNW 17:28:59 10° SSW
Cosmos 1627 Rocket 4.4 17:19:42 10° S 17:25:59 89° WNW 17:32:24 10° N
Cosmos 407 Rocket 4.1 17:21:56 10° NNW 17:27:00 55° WSW 17:31:58 10° S
USA 305 3.9 17:25:36 10° WNW 17:28:38 38° WSW 17:28:38 38° WSW
ATLAS 2AS CENTAUR R/B 2.5 17:22:20 10° NW 17:29:20 71° NE 17:30:17 62° E
Lacrosse 4 Rocket 2.9 17:28:51 10° NW 17:32:51 36° WSW 17:34:32 25° SSW
Cosmos 1954 Rocket 4.4 17:34:49 10° NNW 17:38:57 55° NNW 17:38:57 55° NNW
Cosmos 1818 3.8 17:35:53 10° SSW 17:40:24 62° SSW 17:40:24 62° SSW
Timation 2 Rocket 4.4 17:41:05 10° SSW 17:45:09 44° S 17:45:09 44° S
SL-08 R/B 4.2 17:54:03 44° WNW 17:54:03 44° WNW 17:58:18 10° SW
ADEOS Rocket 4.5 18:05:29 23° N 18:05:29 23° N 18:07:30 10° NNW
USA 234 3.4 18:03:40 63° N 18:04:02 64° NNW 18:10:29 10° W
Cosmos 1553 Rocket 4.3 18:03:02 10° NNW 18:09:19 65° W 18:10:27 55° SW
Cosmos 2344 3.5 18:08:07 10° SW 18:15:31 70° NW 18:16:07 67° N
Lacrosse 5 4.2 18:23:50 10° SW 18:24:56 17° SW 18:24:56 17° SW
ATLAS 2AS CENTAUR R/B 4.3 19:13:50 10° NW 19:17:44 27° W 19:17:44 27° W
